Flag for U.S.A. Weather past 2 weeks in Topeka, Kansas, U.S.A.

Now
88 °F

Sunny.


Feels Like: 90 °F
Forecast: 73 / 90 °F
Wind: 14 mph from Northeast

Location: Philip Billard Municipal Airport

Current Time: Jul 23, 2014 at 1:53:15 PM

Latest Report: Jul 23, 2014 at 12:53 PM


Visibility: 10 mi

Pressure: 30.12 "Hg

Humidity: 46%

Dew point: 65 °F

Location of TopekaLocation

Historic Weather in Topeka — Graph

°F

Topeka temperature yesterday

Maximum temperature yesterday: 102 °F (at 6:53 PM)
Minimum temperature yesterday: 79 °F (at 5:53 AM)
Average temperature yesterday: 86 °F

Past Weeks' High & Low Weather Summary

 TemperatureHumidityPressure
High102 °F (Jul 22, 6:53 PM)96% (Jul 14, 4:53 AM)30.17 "Hg (Jul 14, 4:53 AM)
Low52 °F (Jul 16, 4:58 AM)31% (Jul 9, 3:53 PM)29.85 "Hg (Jul 20, 6:53 PM)
Average77 °F66%30.01 "Hg
* Reported Jul 8 11:53 AM — Jul 23 11:53 AM, Topeka, Weather by CustomWeather, © 2014

Note: Actual official high and low records may vary slightly from our data, if they occured in-between our weather recording intervals... More about our weather records

Advertising

Topeka weather history for previous 24 hours

 ConditionsComfort  
Time TempWeatherWind HumidityBarometerVisibility
11:53 AM
Jul 23
83 °FSunny.9 mph59%30.15 "Hg10 mi
10:53 AM82 °FSunny.7 mph60%30.15 "Hg10 mi
9:53 AM82 °FScattered clouds.8 mph60%30.14 "Hg10 mi
8:53 AM79 °FSunny.10 mph67%30.12 "Hg10 mi
7:53 AM75 °FSunny.9 mph79%30.14 "Hg10 mi
6:53 AM74 °FClear.6 mph82%30.12 "Hg10 mi
5:53 AM75 °FOvercast.10 mph82%30.10 "Hg10 mi
4:53 AM76 °FClear.8 mph82%30.07 "Hg10 mi
3:53 AM78 °FPassing clouds.7 mph79%30.07 "Hg10 mi
2:53 AM80 °FOvercast.8 mph76%30.07 "Hg10 mi
12:53 AM83 °FClear.8 mph77%30.06 "Hg10 mi
11:53 PM
Jul 22
84 °FClear.12 mph85%30.05 "Hg10 mi
10:53 PM85 °FClear.3 mph80%30.02 "Hg10 mi
9:53 PM88 °FClear.8 mph75%30.01 "Hg10 mi
8:53 PM91 °FSunny.8 mph64%29.98 "Hg10 mi
7:53 PM97 °FSunny.3 mph48%29.96 "Hg10 mi
6:53 PM102 °FSunny.7 mph33%29.96 "Hg10 mi
Weather by CustomWeather, © 2014

See weather overviewHow to use our weather pages